Lid_Strength_Index
6 6 5 5 5 5 5 5 5 5 5 4 4 3 3 3 3 8 10 5 2 -0 1 9 10 10 10 12 12 11 15 16 14 13 11 9 11 10 8 8 10 8 7 7 8
6 6 6 6 6 6 6 5 5 5 4 4 4 3 3 2 6 11 6 3 -0 -1 7 10 11 11 13 13 13 14 17 15 13 11 11 11 13 12 13 13 12 11 12 9 8
7 6 6 6 6 6 6 6 6 6 5 4 4 4 3 3 10 11 5 4 2 4 9 10 11 11 14 14 14 15 17 15 14 13 13 12 12 13 15 15 14 14 13 12 9
7 7 7 7 7 6 6 6 6 6 6 6 5 4 3 6 16 10 6 5 2 5 9 11 13 15 16 15 14 17 15 14 14 13 14 14 13 13 14 14 14 13 13 13 11
6 6 6 6 6 6 6 6 6 6 6 6 5 4 7 14 15 10 7 8 7 6 8 10 13 14 16 15 14 15 15 14 14 14 14 14 15 14 14 12 12 13 13 14 14
6 6 6 6 5 5 5 4 3 4 5 4 4 3 13 18 10 10 11 10 10 9 9 9 11 11 14 14 15 14 14 14 14 14 14 15 14 15 13 12 13 12 12 12 13
6 6 6 6 6 6 4 2 2 2 2 3 3 9 14 15 12 12 12 12 10 11 11 9 10 12 13 15 13 14 16 15 15 14 14 13 16 15 12 12 13 13 12 11 10
6 6 6 6 6 5 4 2 1 2 2 2 2 8 15 10 12 12 12 12 11 9 10 10 10 12 14 13 14 16 17 19 15 14 13 14 19 14 12 13 13 13 13 13 12
6 6 6 6 6 5 4 3 3 3 4 5 11 13 17 10 13 12 12 13 12 10 10 8 11 13 14 17 19 18 21 20 17 14 14 15 17 14 12 13 14 13 13 14 13
6 6 6 7 6 6 4 5 5 8 9 10 11 15 15 15 13 12 11 11 11 12 12 12 15 18 18 19 22 21 20 19 19 17 15 17 18 15 13 13 13 12 12 12 13
6 6 6 6 6 6 8 11 12 13 13 16 16 16 14 13 12 13 11 13 13 15 19 15 20 23 21 20 18 20 21 22 20 16 16 16 17 17 14 14 14 13 12 12 11
5 6 6 6 6 6 10 13 13 13 17 14 14 14 13 13 17 15 12 16 17 20 17 18 23 20 19 18 21 21 23 22 19 17 18 18 17 15 14 13 13 13 12 12 11
5 6 6 6 7 11 12 12 10 11 17 16 14 15 15 14 17 17 14 15 18 20 20 21 21 18 18 18 21 22 21 21 21 19 18 19 20 18 14 13 12 11 11 10 12
5 5 6 8 11 13 13 11 10 11 23 19 17 15 14 14 17 13 13 15 17 20 20 21 19 19 20 21 21 24 19 20 21 22 25 20 26 20 17 15 13 12 11 13 15
5 5 7 7 14 14 12 10 9 12 27 18 17 12 14 17 17 16 13 15 19 19 20 22 21 21 22 21 20 23 20 21 21 22 23 23 22 20 16 16 16 14 14 16 16
5 6 8 11 13 12 11 10 12 21 29 24 17 17 17 16 16 16 16 15 16 18 19 20 18 20 21 19 19 19 20 21 20 21 25 20 19 20 19 18 18 16 17 17 18
5 6 10 10 14 11 11 12 21 25 22 25 22 17 18 19 18 18 19 21 23 29 24 21 20 19 18 21 19 19 23 28 30 29 24 16 17 16 14 14 15 16 16 17 18
5 7 10 10 11 11 14 18 25 29 29 18 18 18 20 19 20 19 20 23 21 22 26 26 28 21 18 20 23 21 22 26 29 26 23 17 18 17 13 13 14 14 15 15 17
7 13 14 11 11 14 17 26 26 24 19 19 19 23 27 20 21 21 22 25 24 22 29 29 25 19 17 17 19 21 24 19 22 19 21 19 15 12 13 14 14 15 15 16 17
13 15 15 11 13 15 21 26 26 17 17 17 24 21 31 29 25 25 23 23 20 18 20 22 28 19 18 18 18 20 18 25 22 27 28 21 20 19 17 17 16 16 16 16 17
14 18 14 12 14 19 26 31 21 16 16 18 20 25 22 25 25 28 25 20 21 19 17 26 24 22 20 23 22 22 23 21 21 21 23 25 22 15 16 16 16 16 15 16 16
17 20 13 14 20 33 29 23 16 17 16 17 18 19 22 21 26 26 26 22 19 19 21 21 25 27 24 20 18 20 23 22 27 27 22 22 24 13 14 15 16 16 15 15 15
21 20 14 15 25 31 26 20 17 18 18 18 19 18 19 20 28 22 20 17 17 19 25 23 28 33 27 26 22 25 19 18 19 20 23 25 23 12 14 15 15 17 16 15 15
21 22 20 19 20 23 27 23 22 16 18 18 19 18 20 21 19 27 20 17 16 17 15 16 30 29 30 27 26 29 25 20 24 27 23 21 19 16 16 16 15 16 16 15 16
21 23 24 27 25 27 24 21 20 20 19 17 20 21 25 29 25 23 20 19 17 16 17 21 30 29 24 22 22 22 23 22 23 22 24 19 19 16 16 15 15 15 15 16 16
22 23 25 28 23 25 24 22 20 19 21 22 24 19 20 25 23 25 23 20 21 21 23 23 29 30 28 21 21 23 22 22 21 20 19 18 18 15 16 14 15 15 15 15 16
18 18 21 23 28 27 25 20 19 18 18 18 20 20 20 19 18 19 17 17 18 22 22 22 28 33 33 23 24 32 27 25 21 23 21 22 18 16 16 14 14 15 15 15 15